sat.trackr.live / text

‹ back to catalog

SITRO-AIS 26

NORAD 59067 · 2024-039S

PAYLOAD ACTIVE UNKNOWN

§ Identity

Operator
Country
CIS
Launch date
2024-02-29
Launch site
VOSTO
Launch vehicle
Mass (kg)
RCS (m²)

Purposes: tech_demo

External: N2YO · Heavens-Above · Gunter

§ Orbital elements

Epoch: 2026-09-19T23:28:51.851424Z

Period
96.40 min
Inclination
95.3816°
Eccentricity
0.0143416
Mean motion
14.93842222 rev/d
Perigee alt
486.1 km
Apogee alt
685.8 km
Semi-major
6,964.1 km
B*
1.9618e-4
RAAN
300.0785°
Arg perigee
357.9560°
Mean anomaly
2.1061°
Rev number
13,886

§ Raw data

SITRO-AIS 261 59067U 24039S   26262.97837791  .00002517  00000+0  19618-3 0  99962 59067  95.3816 300.0785 0143416 357.9560   2.1061 14.93842222138861

JSON: /api/v1/satellites/59067 · /tle

For live sub-satellite position, see the globe view (requires WebGL).

§ Visibility from observer

Set your observer location to see the next 7 days of passes ≥ 10°. The values pass through the URL so the page stays shareable.

No JS? Fill the form by hand. The geolocation button needs JavaScript.

§ Radio — SatNOGS DB

ModeDescriptionDownlinkUplink
GMSK USP Mode U - GMSK2k4 USP 401.063 MHz

1 transmitter · refreshed weekly from db.satnogs.org